User: anonymous   Login
Location: Unspecified
(0.0000°N, 0.0000°E)
Time: 02:07:36
(UTC+00:00)
Language:

STARLINK-2225 - Orbit

View from above orbital plane
View from above orbital plane
View from above satellite
View from above satellite

Ground track
Ground track

The orbit is defined by the following mean orbital elements,

1 48574U          26145.26633938 +.00000000 +00000-0 +32134-4 0 00006
2 48574  53.1600 104.8098 0001342  93.3241 266.7914 15.31697017    02
Epoch (UTC): 25 May 2026 06:23:31
Eccentricity: 0.0001342
inclination: 53.1600°
perigee height: 470 km
apogee height: 472 km
right ascension of ascending node: 104.8098°
argument of perigee: 93.3241°
revolutions per day: 15.31697017
mean anomaly at epoch: 266.7914°

The dashed part of the orbit path shows where the satellite is in the earth's shadow,  

DLR